Date,TemperatureHighF,TemperatureAvgF,TemperatureLowF,DewpointHighF,DewpointAvgF,DewpointLowF,HumidityHigh,HumidityAvg,HumidityLow,PressureMaxIn,PressureMinIn,WindSpeedMaxMPH,WindSpeedAvgMPH,GustSpeedMaxMPH,PrecipitationSumIn
2013-1-1,59.9,52.0,44.3,0.0,0.0,0.0,0,0,100,0.00,0.00,18,5,18,2.28
2013-1-2,46.5,42.8,40.3,0.0,0.0,0.0,0,0,100,0.00,0.00,13,3,13,0.00
2013-1-3,68.2,45.8,37.6,0.0,0.0,0.0,0,0,100,0.00,0.00,16,3,16,0.00
2013-1-4,72.4,45.2,36.7,0.0,0.0,0.0,0,0,100,0.00,0.00,11,2,11,0.00
2013-1-5,45.8,42.5,40.9,0.0,0.0,0.0,0,0,100,0.00,0.00,10,2,10,0.56
2013-1-8,62.3,58.4,55.9,0.0,0.0,0.0,0,0,100,0.00,0.00,18,3,18,0.17
2013-1-9,64.8,62.5,60.6,0.0,0.0,0.0,0,0,100,0.00,0.00,13,3,13,3.65
2013-1-10,67.1,62.7,60.0,0.0,0.0,0.0,0,0,100,0.00,0.00,19,3,19,3.40
2013-1-11,85.0,65.0,47.9,0.0,0.0,0.0,0,0,100,0.00,0.00,10,1,10,0.22
2013-1-12,70.5,69.2,67.3,0.0,0.0,0.0,0,0,100,0.00,0.00,10,3,10,0.03
2013-1-15,37.0,35.6,34.7,0.0,0.0,0.0,0,0,100,0.00,0.00,15,5,15,0.30
2013-1-16,41.0,36.8,33.9,0.0,0.0,0.0,0,0,100,0.00,0.00,17,3,17,0.16
2013-1-17,38.3,35.1,33.2,0.0,0.0,0.0,0,0,100,0.00,0.00,4,0,4,0.00
2013-1-29,72.7,70.4,68.7,0.0,0.0,0.0,0,0,100,0.00,0.00,25,8,25,0.18
2013-1-30,71.4,52.5,33.7,0.0,0.0,0.0,0,0,100,0.00,0.00,33,4,33,0.33
2013-1-31,78.1,51.4,30.7,0.0,0.0,0.0,0,0,100,0.00,0.00,13,2,13,0.00
2013-2-1,69.0,49.6,37.9,0.0,0.0,0.0,0,0,100,0.00,0.00,17,2,17,0.00
2013-2-2,86.1,55.8,33.3,0.0,0.0,0.0,0,0,100,0.00,0.00,15,2,15,0.00
2013-2-3,87.3,56.9,37.2,0.0,0.0,0.0,0,0,100,0.00,0.00,12,1,12,0.00
2013-2-4,69.3,52.3,41.9,0.0,0.0,0.0,0,0,100,0.00,0.00,9,1,9,0.00
2013-2-5,68.4,55.4,47.5,0.0,0.0,0.0,0,0,100,0.00,0.00,7,1,7,0.05
2013-2-6,68.2,56.7,44.9,0.0,0.0,0.0,0,0,100,0.00,0.00,15,2,15,0.33
2013-2-7,86.1,63.2,53.9,0.0,0.0,0.0,0,0,100,0.00,0.00,8,1,8,0.00
2013-2-8,61.4,55.8,45.6,0.0,0.0,0.0,0,0,100,0.00,0.00,21,3,22,0.00
2013-2-9,71.7,54.9,40.6,0.0,0.0,0.0,0,0,100,0.00,0.00,18,4,19,0.00
2013-2-10,71.4,64.0,60.3,0.0,0.0,0.0,0,0,100,0.00,0.00,24,3,24,1.34
2013-2-11,61.5,53.3,50.1,0.0,0.0,0.0,0,0,100,0.00,0.00,18,4,19,0.91
2013-2-12,56.7,52.4,48.8,0.0,0.0,0.0,0,0,100,0.00,0.00,17,4,17,1.20
2013-2-13,71.4,51.3,35.6,0.0,0.0,0.0,0,0,100,0.00,0.00,21,4,21,0.00
2013-2-14,81.5,49.6,31.5,0.0,0.0,0.0,0,0,100,0.00,0.00,12,1,12,0.01
2013-2-15,78.9,52.6,34.9,0.0,0.0,0.0,0,0,100,0.00,0.00,22,3,25,0.00
2013-2-16,65.9,47.2,32.4,0.0,0.0,0.0,0,0,100,0.00,0.00,22,4,22,0.00
2013-2-17,76.2,51.4,30.4,0.0,0.0,0.0,0,0,100,0.00,0.00,19,3,19,0.00
2013-2-18,76.2,57.9,48.2,0.0,0.0,0.0,0,0,100,0.00,0.00,24,4,24,1.04
2013-2-19,76.5,55.4,41.1,0.0,0.0,0.0,0,0,100,0.00,0.00,17,4,17,0.00
2013-2-20,68.2,52.4,43.9,0.0,0.0,0.0,0,0,100,0.00,0.00,19,4,19,0.00
2013-2-21,70.2,58.2,47.5,0.0,0.0,0.0,0,0,100,0.00,0.00,20,4,20,0.90
2013-2-22,79.2,56.7,49.8,0.0,0.0,0.0,0,0,100,0.00,0.00,12,3,12,0.20
2013-2-23,82.4,55.5,41.6,0.0,0.0,0.0,0,0,100,0.00,0.00,14,2,14,0.01
2013-2-24,82.4,56.9,37.4,0.0,0.0,0.0,0,0,100,0.00,0.00,14,2,14,0.00
2013-2-25,74.2,60.9,49.6,0.0,0.0,0.0,0,0,100,0.00,0.00,23,4,23,0.27
2013-2-26,71.4,51.6,39.1,0.0,0.0,0.0,0,0,100,0.00,0.00,25,4,25,0.00
2013-2-27,82.8,55.1,34.7,0.0,0.0,0.0,0,0,100,0.00,0.00,17,2,18,0.00
2013-2-28,73.3,49.8,36.6,0.0,0.0,0.0,0,0,100,0.00,0.00,18,3,18,0.00
2013-3-1,70.2,47.9,32.8,0.0,0.0,0.0,0,0,100,0.00,0.00,22,3,22,0.00
2013-3-2,65.0,41.7,31.2,0.0,0.0,0.0,0,0,100,0.00,0.00,18,3,18,0.00
2013-3-3,75.5,48.6,27.7,0.0,0.0,0.0,0,0,100,0.00,0.00,11,2,12,0.00
2013-3-4,80.6,61.0,39.5,0.0,0.0,0.0,0,0,100,0.00,0.00,30,6,31,0.00
2013-3-5,84.5,64.6,47.1,0.0,0.0,0.0,0,0,100,0.00,0.00,29,5,29,0.00
2013-3-6,80.1,54.8,39.5,0.0,0.0,0.0,0,0,100,0.00,0.00,18,4,18,0.00
2013-3-7,80.6,52.2,33.1,0.0,0.0,0.0,0,0,100,0.00,0.00,11,1,11,0.00
2013-3-8,85.7,57.1,34.7,0.0,0.0,0.0,0,0,100,0.00,0.00,15,1,15,0.00
2013-3-9,79.9,62.0,50.9,0.0,0.0,0.0,0,0,100,0.00,0.00,20,3,20,0.00
2013-3-10,73.3,59.7,50.9,0.0,0.0,0.0,0,0,100,0.00,0.00,26,3,26,0.40
2013-3-11,74.9,52.3,37.7,0.0,0.0,0.0,0,0,100,0.00,0.00,20,4,20,0.00
2013-3-12,81.7,53.5,32.7,0.0,0.0,0.0,0,0,100,0.00,0.00,15,2,15,0.00
2013-3-13,80.6,56.1,37.6,0.0,0.0,0.0,0,0,100,0.00,0.00,25,3,25,0.00
2013-3-14,86.5,57.3,34.0,0.0,0.0,0.0,0,0,100,0.00,0.00,12,1,12,0.00
2013-3-15,91.2,64.7,41.6,0.0,0.0,0.0,0,0,100,0.00,0.00,16,4,16,0.00
2013-3-16,89.7,67.9,53.1,0.0,0.0,0.0,0,0,100,0.00,0.00,19,4,19,0.00
2013-3-17,88.1,66.9,52.6,0.0,0.0,0.0,0,0,100,0.00,0.00,22,4,22,0.00
2013-3-18,100.8,75.2,61.6,0.0,0.0,0.0,0,0,100,0.00,0.00,20,4,20,0.00
2013-3-19,82.1,63.8,50.1,0.0,0.0,0.0,0,0,100,0.00,0.00,21,5,21,0.00
2013-3-20,83.9,59.8,43.3,0.0,0.0,0.0,0,0,100,0.00,0.00,19,4,19,0.09
2013-3-21,73.9,55.0,40.6,0.0,0.0,0.0,0,0,100,0.00,0.00,17,3,17,0.00
2013-3-22,87.3,65.1,54.9,0.0,0.0,0.0,0,0,100,0.00,0.00,11,2,11,0.00
2013-3-23,77.4,64.2,57.5,0.0,0.0,0.0,0,0,100,0.00,0.00,16,2,16,0.03
2013-3-24,71.1,56.7,40.9,0.0,0.0,0.0,0,0,100,0.00,0.00,31,6,35,0.00
2013-3-25,72.6,49.6,32.6,0.0,0.0,0.0,0,0,100,0.00,0.00,27,4,28,0.00
2013-3-26,71.4,47.9,29.4,0.0,0.0,0.0,0,0,100,0.00,0.00,18,3,18,0.00
2013-3-27,82.8,51.5,29.5,0.0,0.0,0.0,0,0,100,0.00,0.00,12,1,12,0.00
2013-3-28,85.7,56.0,36.6,0.0,0.0,0.0,0,0,100,0.00,0.00,11,1,11,0.00
2013-3-29,92.0,66.5,47.4,0.0,0.0,0.0,0,0,100,0.00,0.00,16,2,16,0.00
2013-3-30,86.1,65.2,53.7,0.0,0.0,0.0,0,0,100,0.00,0.00,15,3,15,0.15
2013-3-31,76.8,64.6,55.2,0.0,0.0,0.0,0,0,100,0.00,0.00,33,2,33,0.11
2013-5-22,95.5,80.8,69.0,0.0,0.0,0.0,0,0,100,0.00,0.00,8,2,10,0.00
2013-5-23,108.2,79.6,66.4,0.0,0.0,0.0,0,0,100,0.00,0.00,17,2,17,0.00
2013-5-24,98.2,78.1,63.7,0.0,0.0,0.0,0,0,100,0.00,0.00,18,2,18,0.00
2013-5-25,96.7,78.6,68.4,0.0,0.0,0.0,0,0,100,0.00,0.00,14,3,14,0.00
2013-5-26,95.9,78.2,68.5,0.0,0.0,0.0,0,0,100,0.00,0.00,14,2,14,0.00
2013-5-27,99.9,80.3,68.7,0.0,0.0,0.0,0,0,100,0.00,0.00,16,3,16,0.00
2013-5-28,98.2,80.3,68.0,0.0,0.0,0.0,0,0,100,0.00,0.00,16,3,16,0.00
2013-5-29,99.8,78.9,65.6,0.0,0.0,0.0,0,0,100,0.00,0.00,23,2,23,0.21
2013-5-30,98.8,79.9,70.2,0.0,0.0,0.0,0,0,100,0.00,0.00,29,3,29,0.38
2013-5-31,99.8,82.3,73.3,0.0,0.0,0.0,0,0,100,0.00,0.00,19,4,19,0.00
2013-6-1,101.4,83.6,74.6,0.0,0.0,0.0,0,0,100,0.00,0.00,17,4,17,0.00
2013-6-2,100.2,79.1,67.6,0.0,0.0,0.0,0,0,100,0.00,0.00,20,2,20,1.14
2013-6-3,99.8,78.2,68.1,0.0,0.0,0.0,0,0,100,0.00,0.00,12,2,14,0.00
2013-6-4,108.6,83.7,67.0,0.0,0.0,0.0,0,0,100,0.00,0.00,10,2,11,0.00
2013-6-5,106.4,85.9,70.5,0.0,0.0,0.0,0,0,100,0.00,0.00,9,1,9,0.00
2013-6-6,99.8,76.4,70.5,0.0,0.0,0.0,0,0,100,0.00,0.00,17,3,17,0.31
2013-6-7,101.7,78.5,67.0,0.0,0.0,0.0,0,0,100,0.00,0.00,10,2,10,0.01
2013-6-8,102.4,77.6,63.9,0.0,0.0,0.0,0,0,100,0.00,0.00,50,2,50,1.07
2013-6-9,106.0,76.9,65.6,0.0,0.0,0.0,0,0,100,0.00,0.00,18,1,18,0.06
2013-6-10,105.0,82.7,65.6,0.0,0.0,0.0,0,0,100,0.00,0.00,10,2,10,0.00
2013-6-11,105.0,84.6,68.6,0.0,0.0,0.0,0,0,100,0.00,0.00,10,1,11,0.00
2013-6-12,108.6,86.2,71.4,0.0,0.0,0.0,0,0,100,0.00,0.00,11,2,11,0.00
2013-6-13,110.3,87.9,72.4,0.0,0.0,0.0,0,0,100,0.00,0.00,14,2,14,0.00
2013-6-14,107.5,87.1,69.5,0.0,0.0,0.0,0,0,100,0.00,0.00,13,3,13,0.00
2013-6-15,104.3,82.3,65.6,0.0,0.0,0.0,0,0,100,0.00,0.00,10,2,10,0.00
2013-6-16,109.2,86.0,72.3,0.0,0.0,0.0,0,0,100,0.00,0.00,12,2,12,0.00
2013-6-17,107.5,86.5,71.7,0.0,0.0,0.0,0,0,100,0.00,0.00,13,2,13,0.00
2013-6-18,100.2,78.7,69.8,0.0,0.0,0.0,0,0,100,0.00,0.00,15,2,15,0.84
2013-6-19,99.2,77.3,68.6,0.0,0.0,0.0,0,0,100,0.00,0.00,11,1,11,0.09
2013-6-20,109.6,81.7,68.1,0.0,0.0,0.0,0,0,100,0.00,0.00,11,1,11,0.18
2013-6-21,109.2,82.7,68.6,0.0,0.0,0.0,0,0,100,0.00,0.00,14,1,14,0.01
2013-6-22,106.0,84.1,67.3,0.0,0.0,0.0,0,0,100,0.00,0.00,10,1,10,0.00
2013-6-23,106.4,84.8,69.3,0.0,0.0,0.0,0,0,100,0.00,0.00,11,2,11,0.00
2013-6-24,103.3,82.2,71.4,0.0,0.0,0.0,0,0,100,0.00,0.00,18,2,18,0.27
2013-6-25,106.0,83.8,68.6,0.0,0.0,0.0,0,0,100,0.00,0.00,14,2,14,0.00
2013-6-26,107.1,86.6,71.4,0.0,0.0,0.0,0,0,100,0.00,0.00,11,2,11,0.00
2013-6-27,109.7,87.6,71.1,0.0,0.0,0.0,0,0,100,0.00,0.00,17,2,17,0.00
2013-6-28,107.1,87.1,73.9,0.0,0.0,0.0,0,0,100,0.00,0.00,14,2,14,0.00
2013-6-29,110.3,88.4,72.0,0.0,0.0,0.0,0,0,100,0.00,0.00,20,2,20,0.00
2013-6-30,105.0,83.2,65.0,0.0,0.0,0.0,0,0,100,0.00,0.00,18,3,18,0.00
2013-7-1,100.8,80.2,63.0,0.0,0.0,0.0,0,0,100,0.00,0.00,16,2,17,0.00
2013-7-2,103.9,78.8,62.8,0.0,0.0,0.0,0,0,100,0.00,0.00,13,2,13,0.01
2013-7-3,102.7,78.7,62.5,0.0,0.0,0.0,0,0,100,0.00,0.00,15,2,16,0.01
2013-7-4,103.3,80.7,64.8,0.0,0.0,0.0,0,0,100,0.00,0.00,13,2,13,0.00
2013-7-5,105.3,80.5,63.3,0.0,0.0,0.0,0,0,100,0.00,0.00,22,2,22,0.00
2013-7-6,103.9,81.3,66.4,0.0,0.0,0.0,0,0,100,0.00,0.00,13,2,13,0.00
2013-7-7,105.0,81.9,72.0,0.0,0.0,0.0,0,0,100,0.00,0.00,16,2,16,0.00
2013-7-8,110.5,84.3,72.0,0.0,0.0,0.0,0,0,100,0.00,0.00,16,2,16,0.00
2013-7-9,109.7,86.3,71.4,0.0,0.0,0.0,0,0,100,0.00,0.00,11,2,11,0.00
2013-7-10,108.2,88.0,72.3,0.0,0.0,0.0,0,0,100,0.00,0.00,14,2,14,0.00
2013-7-11,101.4,82.7,71.4,0.0,0.0,0.0,0,0,100,0.00,0.00,20,2,21,0.00
2013-7-12,110.0,86.3,69.3,0.0,0.0,0.0,0,0,100,0.00,0.00,16,3,17,0.00
2013-7-13,106.4,81.5,60.8,0.0,0.0,0.0,0,0,100,0.00,0.00,15,2,16,0.00
2013-7-14,101.4,78.6,66.4,0.0,0.0,0.0,0,0,100,0.00,0.00,19,2,19,0.00
2013-7-15,99.8,78.3,67.3,0.0,0.0,0.0,0,0,100,0.00,0.00,21,2,21,0.03
2013-7-16,99.2,80.5,73.1,0.0,0.0,0.0,0,0,100,0.00,0.00,17,3,17,0.00
2013-8-6,115.3,96.4,81.4,0.0,0.0,0.0,0,0,100,0.00,0.00,16,2,16,0.00
2013-8-7,113.5,90.4,77.4,0.0,0.0,0.0,0,0,100,0.00,0.00,13,2,13,0.00
2013-8-8,112.9,89.3,72.3,0.0,0.0,0.0,0,0,100,0.00,0.00,11,2,11,0.00
2013-8-9,109.7,88.2,73.0,0.0,0.0,0.0,0,0,100,0.00,0.00,11,2,17,0.00
2013-8-10,108.2,84.3,73.3,0.0,0.0,0.0,0,0,100,0.00,0.00,14,2,14,0.00
2013-8-11,110.0,82.8,70.8,0.0,0.0,0.0,0,0,100,0.00,0.00,11,1,11,0.11
2013-8-12,106.4,81.8,71.4,0.0,0.0,0.0,0,0,100,0.00,0.00,25,1,28,0.80
2013-8-13,108.2,83.9,72.0,0.0,0.0,0.0,0,0,100,0.00,0.00,34,2,34,0.67
2013-8-14,99.1,78.2,71.1,0.0,0.0,0.0,0,0,100,0.00,0.00,13,2,13,0.66
2013-8-15,102.4,80.7,66.8,0.0,0.0,0.0,0,0,100,0.00,0.00,14,3,14,0.00
2013-8-16,101.4,79.6,64.8,0.0,0.0,0.0,0,0,100,0.00,0.00,14,3,14,0.00
2013-8-17,103.3,79.1,64.4,0.0,0.0,0.0,0,0,100,0.00,0.00,17,4,17,0.00
2013-8-18,103.3,80.0,67.3,0.0,0.0,0.0,0,0,100,0.00,0.00,17,3,17,0.00
2013-8-19,102.4,77.1,65.6,0.0,0.0,0.0,0,0,100,0.00,0.00,12,1,12,0.00
2013-8-20,101.7,77.3,65.6,0.0,0.0,0.0,0,0,100,0.00,0.00,14,1,14,0.01
2013-8-21,73.0,71.5,70.2,0.0,0.0,0.0,0,0,100,0.00,0.00,5,0,5,0.00
2013-10-5,72.3,72.2,72.0,0.0,0.0,0.0,0,0,100,0.00,0.00,0,0,0,0.00
2013-11-19,58.4,54.2,53.3,0.0,0.0,0.0,0,0,100,0.00,0.00,10,4,10,0.00
2013-11-20,81.7,78.9,78.9,0.0,0.0,0.0,0,0,100,0.00,0.00,7,1,7,0.00
2013-11-22,67.3,66.8,66.7,0.0,0.0,0.0,0,0,100,0.00,0.00,4,2,4,0.00
2013-12-10,59.6,40.1,31.6,0.0,0.0,0.0,0,0,100,0.00,0.00,16,2,16,0.00
2013-12-11,69.9,43.5,30.3,0.0,0.0,0.0,0,0,100,0.00,0.00,11,1,11,0.01
2013-12-12,63.6,42.7,32.1,0.0,0.0,0.0,0,0,100,0.00,0.00,12,3,18,0.00
2013-12-13,40.8,36.7,35.0,0.0,0.0,0.0,0,0,100,0.00,0.00,7,0,7,0.00